[[{"header":{"parameterUnit":"m.s-1","parameterCategory":1,"la1":30.2991,"la2":30.254,"lo1":-89.0895,"lo2":-89.0444,"dy":0.0017,"dx":0.0017,"nx":28,"ny":28,"refTime":"2024-03-16T21:00:00:Z","depth":0,"parameterNumber":2,"parameterNumberName":"U-component_of_WINDS"},"data":[0,0,0,0,0,0,0,0,0,0,0,0,0,0,0,0,0,0,0,0,0,0,0,0,0,0,0,0,0,0,0,0,0,0,0,0,0,0,0,0,0,0,0,0,0,0,0,0,0,0,0,0,0,0,0,0,0,0,0.154,0.1541,0,0.1592,0.1593,0.1593,0.1619,0.1619,0.1619,0.1619,0.1672,0.1673,0.1675,0,0,0,0,0,0,0,0,0,0,0,0,0,0.1462,0.1463,0.154,0.1541,0.1541,0.1592,0.1593,0.1593,0.1619,0.1619,0.1619,0.1619,0.1672,0.1673,0.1675,0,0,0,0,0,0,0,0,0,0,0,0,0,0.1503,0.1464,0.154,0.156,0.1562,0.1592,0.1593,0.1594,0.1619,0.1619,0.1619,0.1619,0.1671,0.1673,0.1675,0.1689,0,0,0.1682,0.1683,0,0,0,0,0,0,0,0,0.1501,0.1506,0.1556,0.1559,0.1561,0.1599,0.1585,0.1625,0.1619,0.1597,0.1619,0.1619,0.1648,0.1652,0.1662,0.1691,0.1694,0.1682,0.1683,0.1684,0.1685,0,0,0,0,0,0,0,0.1498,0.1504,0.1561,0.1557,0.156,0.1566,0.1572,0.1593,0.1622,0.1599,0.1601,0.1607,0.1649,0.1659,0.1663,0.1694,0.1682,0.1684,0.1685,0.1686,0.1737,0.1737,0,0,0,0,0,0,0.1492,0.1501,0.1559,0.1562,0.153,0.1568,0.1574,0.1587,0.1622,0.1627,0.1607,0.1608,0.1656,0.166,0.1665,0.1683,0.1684,0.1686,0.1687,0.1737,0.1737,0.1738,0,0,0,0,0,0,0.149,0.1497,0.1557,0.1532,0.154,0.1569,0.1583,0.1588,0.1598,0.1628,0.1633,0.1612,0.1656,0.1662,0.1683,0.1685,0.1687,0.1689,0.1737,0.1737,0.1737,0.1719,0,0,0,0,0,0,0.1488,0.1496,0.1502,0.1532,0.1542,0.1574,0.1583,0.1589,0.1602,0.1604,0.1634,0.1639,0.1656,0.1679,0.1685,0.1688,0.1691,0.1737,0.1737,0.1737,0.172,0.1719,0.1718,0,0,0,0,0,0.1485,0.1494,0.1502,0.1508,0.1549,0.1574,0.1579,0.1599,0.1602,0.1608,0.1626,0.1638,0.1684,0.1681,0.1687,0.1692,0.1737,0.1737,0.1737,0.172,0.1719,0.1718,0,0,0,0,0,0,0.1463,0.1499,0.1507,0.1527,0.1547,0.1578,0.1586,0.1597,0.1617,0.1618,0.1641,0.1648,0.1666,0.1681,0.1677,0.1706,0.1712,0.1713,0.1696,0.1695,0.1694,0.1691,0.1693,0,0,0,0,0,0.1461,0.1478,0.1508,0.1522,0.1532,0.1557,0.1569,0.1582,0.1604,0.1612,0.1633,0.1653,0.1673,0.1685,0.1704,0.1722,0.1729,0.1728,0.1727,0.1726,0.1727,0.1737,0.1737,0.1738,0.1738,0.1738,0,0,0.1456,0.1478,0.1487,0.1519,0.1536,0.1553,0.1564,0.1582,0.1594,0.1615,0.1636,0.1651,0.1676,0.1695,0.1705,0.1708,0.1728,0.1726,0.1725,0.1727,0.1737,0.1737,0.1737,0.1738,0.1738,0.1738,0,0,0.1456,0.1474,0.1488,0.1505,0.1531,0.1547,0.155,0.1579,0.159,0.1611,0.1627,0.1643,0.1675,0.1692,0.1705,0.171,0.1722,0.1716,0.1711,0.1721,0.1721,0.1721,0.1723,0.1723,0.1717,0.1717,0.1717,0,0.1447,0.1473,0.1494,0.151,0.1524,0.1543,0.1557,0.1572,0.1603,0.1612,0.1615,0.1656,0.1674,0.1697,0.1698,0.1708,0.1713,0.1713,0.1719,0.1719,0.172,0.1722,0.1722,0.1716,0.1716,0.1716,0.1716,0,0.146,0.1478,0.1486,0.1515,0.153,0.1545,0.1568,0.158,0.1592,0.1608,0.1629,0.1651,0.1675,0.1681,0.1693,0.1706,0.1707,0.1714,0.172,0.1718,0.1721,0.1722,0.1715,0.1715,0.1715,0.1715,0,0,0.1449,0.1489,0.1491,0.1504,0.1534,0.1548,0.1564,0.1587,0.1597,0.1617,0.1631,0.1658,0.1664,0.1679,0.1693,0.1701,0.1704,0.1708,0.1708,0.1706,0.1719,0.1714,0.1715,0.1712,0.1712,0.1712,0.1717,0,0.1453,0.1482,0.1501,0.1523,0.154,0.1558,0.1572,0.1591,0.1606,0.1623,0.164,0.1658,0.1666,0.1674,0.1683,0.1702,0.1707,0.1702,0.1725,0.1725,0.1718,0.1716,0.171,0.1714,0.1718,0.1719,0.1719,0,0.1462,0.1481,0.1505,0.1532,0.154,0.1552,0.1575,0.159,0.1612,0.1623,0.1638,0.1652,0.167,0.1674,0.1698,0.1694,0.1704,0.1715,0.1715,0.1718,0.1722,0.1719,0.1716,0.1717,0.172,0.172,0.172,0,0.1451,0.1483,0.1501,0.1512,0.1544,0.1552,0.1566,0.1588,0.1601,0.1621,0.1629,0.165,0.1662,0.1678,0.1698,0.1699,0.172,0.1725,0.1729,0.1729,0.1733,0.1733,0.1732,0.1739,0.1739,0.1739,0.1739,0,0.1454,0.1467,0.1497,0.1508,0.1524,0.1545,0.156,0.1575,0.1595,0.1609,0.1626,0.1639,0.1664,0.168,0.1695,0.1713,0.1718,0.1727,0.1731,0.1726,0.1725,0.1733,0.1733,0.174,0.174,0.174,0.1739,0,0.1444,0.1465,0.1486,0.1514,0.1522,0.1532,0.1557,0.1568,0.1584,0.1602,0.1607,0.1632,0.1652,0.1673,0.17,0.171,0.1727,0.1732,0.1719,0.1722,0.1724,0.1724,0.1729,0.1731,0.1737,0.1737,0.1737,0,0.1445,0.1456,0.1485,0.1496,0.151,0.1527,0.154,0.1561,0.1573,0.1599,0.1607,0.1628,0.1646,0.1677,0.1697,0.1718,0.1724,0.1725,0.1727,0.1722,0.1724,0.1723,0.1724,0.1724,0.1724,0.1723,0.1723,0,0.1444,0.1453,0.1471,0.1492,0.1507,0.1525,0.1543,0.1551,0.1575,0.1589,0.1609,0.1623,0.165,0.167,0.1693,0.1708,0.172,0.1722,0.1724,0.1719,0.1711,0.1715,0.1717,0.1722,0.1722,0.1722,0.1722,0.1722,0.144,0.145,0.1472,0.1491,0.1507,0.1524,0.1536,0.1553,0.157,0.1594,0.1605,0.1626,0.1647,0.1679,0.1693,0.1709,0.1713,0.1715,0.1716,0.1717,0.1715,0.1708,0.1713,0.1713,0.1713,0.1713,0.1714,0,0.1439,0.1454,0.1472,0.1497,0.1511,0.1521,0.1542,0.1554,0.1571,0.159,0.1607,0.163,0.165,0.1672,0.1693,0.1702,0.1708,0.1707,0.1706,0.1709,0.1711,0.1707,0.1701,0.1701,0.1701,0.1701,0.1701,0.1701,0.1441,0.1459,0.1471,0.1497,0.1512,0.1531,0.1542,0.1558,0.1573,0.1598,0.1614,0.1628,0.1648,0.1671,0.169,0.1696,0.1703,0.17,0.1707,0.1708,0.1709,0.171,0.1707,0.1701,0.1701,0.1705,0.1705,0.1705]},{"header":{"parameterUnit":"m.s-1","parameterCategory":1,"la1":30.2991,"la2":30.254,"lo1":-89.0895,"lo2":-89.0444,"dy":0.0017,"dx":0.0017,"nx":28,"ny":28,"refTime":"2024-03-16T21:00:00:Z","depth":0,"parameterNumber":3,"parameterNumberName":"V-component_of_WINDS"},"data":[0,0,0,0,0,0,0,0,0,0,0,0,0,0,0,0,0,0,0,0,0,0,0,0,0,0,0,0,0,0,0,0,0,0,0,0,0,0,0,0,0,0,0,0,0,0,0,0,0,0,0,0,0,0,0,0,0,0,0.3594,0.3594,0,0.3563,0.3562,0.3562,0.3546,0.3546,0.3546,0.3546,0.3513,0.3512,0.3511,0,0,0,0,0,0,0,0,0,0,0,0,0,0.3638,0.3638,0.3594,0.3594,0.3593,0.3563,0.3562,0.3562,0.3546,0.3546,0.3546,0.3546,0.3513,0.3512,0.3511,0,0,0,0,0,0,0,0,0,0,0,0,0,0.3614,0.3637,0.3594,0.3581,0.358,0.3563,0.3562,0.3562,0.3546,0.3546,0.3546,0.3546,0.3513,0.3512,0.3511,0.3504,0,0,0.3507,0.3506,0,0,0,0,0,0,0,0,0.3616,0.3613,0.3584,0.3582,0.3581,0.3558,0.3566,0.3542,0.3546,0.3559,0.3546,0.3546,0.3528,0.3525,0.352,0.3502,0.3501,0.3507,0.3506,0.3506,0.3505,0,0,0,0,0,0,0,0.3617,0.3614,0.3582,0.3583,0.3581,0.3577,0.3574,0.3561,0.3544,0.3558,0.3556,0.3553,0.3527,0.3521,0.3519,0.35,0.3507,0.3506,0.3505,0.3504,0.3475,0.3475,0,0,0,0,0,0,0.3621,0.3615,0.3583,0.3581,0.3598,0.3576,0.3572,0.3565,0.3544,0.3541,0.3553,0.3552,0.3523,0.352,0.3517,0.3508,0.3506,0.3504,0.3504,0.3475,0.3475,0.3475,0,0,0,0,0,0,0.3622,0.3618,0.3584,0.3598,0.3593,0.3576,0.3568,0.3565,0.3559,0.354,0.3537,0.355,0.3523,0.3519,0.3507,0.3506,0.3504,0.3503,0.3475,0.3475,0.3475,0.3488,0,0,0,0,0,0,0.3624,0.3619,0.3616,0.3598,0.3592,0.3574,0.3568,0.3564,0.3557,0.3555,0.3537,0.3534,0.3523,0.3509,0.3506,0.3504,0.3502,0.3475,0.3475,0.3475,0.3488,0.3488,0.3489,0,0,0,0,0,0.3625,0.3621,0.3616,0.3612,0.3589,0.3574,0.3571,0.3559,0.3557,0.3554,0.3542,0.3534,0.3507,0.3508,0.3504,0.3502,0.3475,0.3475,0.3475,0.3487,0.3488,0.3489,0,0,0,0,0,0,0.3639,0.3618,0.3613,0.3602,0.359,0.3572,0.3568,0.356,0.3549,0.3548,0.3533,0.3529,0.3518,0.3509,0.3511,0.3494,0.349,0.3489,0.3501,0.3501,0.3502,0.3505,0.3501,0,0,0,0,0,0.3641,0.3632,0.3614,0.3606,0.36,0.3585,0.3578,0.357,0.3557,0.3552,0.3539,0.3526,0.3515,0.3508,0.3496,0.3486,0.3482,0.3483,0.3484,0.3484,0.3484,0.3478,0.3478,0.3475,0.3475,0.3475,0,0,0.3645,0.3632,0.3627,0.3609,0.3598,0.3589,0.3581,0.3571,0.3564,0.355,0.3538,0.3528,0.3513,0.3502,0.3497,0.3494,0.3484,0.3484,0.3485,0.3484,0.3478,0.3478,0.3478,0.3475,0.3475,0.3475,0,0,0.3647,0.3636,0.3629,0.3619,0.3604,0.3593,0.3592,0.3574,0.3567,0.3555,0.3545,0.3536,0.3516,0.3506,0.3498,0.3496,0.3489,0.3493,0.3497,0.3491,0.3491,0.3492,0.3491,0.3491,0.3492,0.3492,0.3492,0,0.3653,0.3639,0.3626,0.3617,0.3609,0.3596,0.3589,0.358,0.3561,0.3556,0.3553,0.3529,0.3518,0.3504,0.3504,0.3498,0.3495,0.3495,0.3493,0.3493,0.3492,0.3492,0.3492,0.3493,0.3493,0.3493,0.3493,0,0.3647,0.3637,0.3633,0.3616,0.3608,0.3599,0.3585,0.3578,0.3571,0.3561,0.3548,0.3535,0.352,0.3516,0.3508,0.3502,0.35,0.3496,0.3491,0.3494,0.3493,0.3492,0.3494,0.3494,0.3493,0.3493,0,0,0.3657,0.3633,0.3632,0.3624,0.3607,0.3598,0.3589,0.3576,0.357,0.3558,0.355,0.3533,0.3529,0.352,0.3511,0.3506,0.3505,0.3501,0.3501,0.3503,0.3497,0.3501,0.3501,0.35,0.35,0.35,0.3498,0,0.3657,0.364,0.3629,0.3617,0.3607,0.3595,0.3587,0.3576,0.3566,0.3556,0.3546,0.3535,0.3529,0.3524,0.3518,0.3507,0.3504,0.3507,0.3493,0.3492,0.3497,0.35,0.3505,0.3504,0.3498,0.3498,0.3498,0,0.3654,0.3642,0.363,0.3613,0.3609,0.3602,0.3588,0.3579,0.3566,0.3559,0.3549,0.354,0.353,0.3526,0.3512,0.3514,0.3507,0.3501,0.35,0.3499,0.3495,0.3499,0.3503,0.3503,0.3497,0.3497,0.3497,0,0.3663,0.3644,0.3634,0.3627,0.3608,0.3603,0.3595,0.3581,0.3574,0.3562,0.3556,0.3543,0.3536,0.3526,0.3513,0.3512,0.35,0.3496,0.3494,0.3495,0.3492,0.3493,0.3495,0.3488,0.3488,0.3488,0.3488,0,0.3663,0.3656,0.3637,0.3631,0.3623,0.3609,0.3601,0.3591,0.3579,0.3571,0.356,0.3552,0.3536,0.3526,0.3516,0.3505,0.3502,0.3496,0.3494,0.3497,0.3498,0.3493,0.3493,0.3488,0.3488,0.3488,0.3488,0,0.3671,0.3659,0.3647,0.363,0.3625,0.3619,0.3604,0.3598,0.3588,0.3577,0.3574,0.3558,0.3546,0.3532,0.3515,0.3509,0.3499,0.3495,0.3504,0.3502,0.3502,0.3502,0.3501,0.3501,0.3494,0.3494,0.3494,0,0.3673,0.3667,0.3649,0.3643,0.3635,0.3625,0.3617,0.3604,0.3596,0.358,0.3575,0.3562,0.3551,0.3533,0.3519,0.3506,0.3502,0.3503,0.35,0.3504,0.3502,0.3503,0.3502,0.3504,0.3504,0.3504,0.3504,0,0.3677,0.3671,0.366,0.3648,0.3639,0.3629,0.3617,0.3613,0.3597,0.3589,0.3577,0.3568,0.3551,0.3539,0.3524,0.3515,0.3507,0.3505,0.3504,0.3508,0.3513,0.351,0.3506,0.3505,0.3505,0.3505,0.3505,0.3505,0.3682,0.3676,0.3662,0.3651,0.3641,0.3631,0.3624,0.3614,0.3603,0.3589,0.3581,0.3569,0.3555,0.3535,0.3526,0.3516,0.3514,0.3512,0.3512,0.3512,0.3513,0.3515,0.3514,0.3514,0.3514,0.3513,0.3513,0,0.3685,0.3676,0.3666,0.3651,0.3642,0.3635,0.3623,0.3616,0.3605,0.3593,0.3583,0.3569,0.3556,0.3542,0.3529,0.3524,0.352,0.3521,0.3521,0.3519,0.3516,0.3518,0.3524,0.3524,0.3524,0.3524,0.3524,0.3524,0.3686,0.3676,0.3668,0.3653,0.3644,0.3632,0.3626,0.3616,0.3607,0.3592,0.3581,0.3572,0.3559,0.3545,0.3534,0.353,0.3525,0.3528,0.3523,0.352,0.3519,0.3518,0.352,0.3527,0.3527,0.3526,0.3526,0.3526]}]]